Regional Weather Roundup
Issued by NWS Northern Indiana

Home | Current Version | Previous Version | Text Only | Print | Product List | Glossary Off
Versions: 1 2 3 4 5 6 7 8 9 10 11 12 13 14 15 16 17 18 19 20 21 22 23 24 25 26 27 28 29 30 31 32 33 34 35 36 37 38 39 40 41 42 43 44 45 46 47 48 49 50

331
ASUS43 KIWX 312300
RWRIWX

KIWX WEATHER ROUNDUP
NATIONAL WEATHER SERVICE NORTHERN INDIANA
700 PM EDT TUE MAY 31 2016

NOTE: "FAIR" INDICATES FEW OR NO CLOUDS BELOW 12,000 FEET WITH NO
SIGNIFICANT WEATHER AND/OR OBSTRUCTIONS TO VISIBILITY.

* THESE STATIONS ARE NOT UNDER NWS QUALITY CONTROL. THEY ALSO MAY NOT
  REPORT WEATHER SUCH AS PRECIPITATION OR FOG.

INZ001>027-010000-
NORTHERN INDIANA

CITY           SKY/WX    TMP DP  RH WIND       PRES   REMARKS
GARY*          CLOUDY    68  68 100 NW8       30.02R
SOUTH BEND     LGT RAIN  71  61  70 SW20G28   30.01R
GOSHEN         FAIR      81  49  32 E8        29.97R
ANGOLA*          N/A     84  48  28 E14       29.98F
FORT WAYNE     FAIR      83  50  31 E15       29.96F

$$
INZ028>050-010000-
CENTRAL INDIANA

CITY           SKY/WX    TMP DP  RH WIND       PRES   REMARKS
LAFAYETTE      PTSUNNY   77  59  53 NE13      29.92S
KOKOMO*        PTSUNNY   77  57  50 W10       29.95R
MUNCIE*        LGT RAIN  79  62  56 W6        29.95S
INDIANAPOLIS   FAIR      82  58  43 SE10      29.93F

$$
MIZ043>046-050>051-056>058-064>065-071>073-077>080-010000-
SOUTHWEST LOWER MICHIGAN

CITY           SKY/WX    TMP DP  RH WIND       PRES   REMARKS
BATTLE CREEK   FAIR      80  47  31 E9        30.00F
BENTON HARBOR  PTSUNNY   69  56  62 W12G23    29.99R
COLDWATER*     FAIR      79  46  31 E14       29.99S
HILLSDALE*     FAIR      80  34  18 SE12      30.02S
HOLLAND        FAIR      84  47  27 SE10      29.97F
GRAND RAPIDS   FAIR      84  48  28 SE12      29.99S
KALAMAZOO      FAIR      81  48  31 E5        29.98F
STURGIS*       FAIR      83  48  29 SE9       29.97S
THREE RIVERS*  FAIR      83  44  24 E7        29.97S

$$
OHZ001>008-015>018-024>025-010000-
NORTHWEST OHIO

CITY           SKY/WX    TMP DP  RH WIND       PRES   REMARKS
DEFIANCE       FAIR      83  49  30 E12       29.98F
FINDLAY        FAIR      82  46  28 NE17      29.99F
TOLEDO EXPRESS FAIR      80  50  34 E13       30.01F
TOLEDO METCALF FAIR      78  50  37 NE10      30.03S
LIMA           FAIR      82  50  32 NE14      29.98S

$$
AND FOR LAKE MICHIGAN COASTAL AND OPEN LAKE BUOY OBSERVATIONS

STATION/POSITION TEMP    WIND        PRES    VSBY  WAVE
                 AIR SEA DIR/SP/G                  HT/PER
                 (F)     (DEG/KT/KT) (MB)    (MI)  (FT/S)
CALUMET HARBOR                       1016.3R
MICHIGAN CITY     74      50/  6/  6   N/A
BURNS HARBOR      65     320/ 13     1015.9R
SAINT JOSEPH      84      60/  1/  6 1015.6R
SOUTH LAKE BUOY   59 56  340/ 14/ 17 1015.1          0
4 MI NW BRIDGMAN  71 67  270/ 12/ 14   N/A           1
MICHIGAN CITY     70 62   80/ 10/ 14   N/A           1/ 3

$$
&&




USA.gov is the U.S. government's official web portal to all federal, state and local government web resources and services.